FW6820 Weather Reports


Display with metric or nautical units.
time (UTC)temp
F
wind
direction
speed
MPH
gust
MPH
rain 1hr
in
rain 24hr
in
rain mn
in
humidity
%
barometer
mb
20260905004606 91 141 13.0 26.0 0.00 0.00 0.00 63 1010.1
20260905003056 92 124 15.0 24.0 0.00 0.00 0.00 61 1010.1
20260905001543 93 149 15.0 24.0 0.00 0.00 0.00 58 1009.8
20260905000053 94 129 14.0 26.0 0.00 0.00 0.00 56 1009.5
20260904234547 95 139 16.0 29.0 0.00 0.00 0.00 54 1009.2
20260904233057 96 155 12.0 24.0 0.00 0.00 0.00 53 1009.1
20260904231550 97 107 14.0 21.0 0.00 0.00 0.00 52 1009.1
20260904230051 98 360 11.0 23.0 0.00 0.00 0.00 51 1009.0
20260904224549 99 128 10.0 19.0 0.00 0.00 0.00 50 1008.9
20260904223043 99 153 14.0 24.0 0.00 0.00 0.00 46 1009.1
20260904221544 101 148 11.0 19.0 0.00 0.00 0.00 40 1008.9
20260904220051 101 138 7.0 18.0 0.00 0.00 0.00 40 1008.9
20260904214549 101 124 6.0 20.0 0.00 0.00 0.00 40 1009.0
20260904213044 101 94 7.0 17.0 0.00 0.00 0.00 44 1009.0
20260904211542 101 140 11.0 18.0 0.00 0.00 0.00 45 1009.1
20260904210052 101 141 9.0 20.0 0.00 0.00 0.00 46 1009.2
20260904204543 101 134 7.0 17.0 0.00 0.00 0.00 46 1009.3
20260904203052 102 79 8.0 19.0 0.00 0.00 0.00 46 1009.4
20260904201552 101 114 4.0 19.0 0.00 0.00 0.00 45 1009.4
20260904200050 101 149 5.0 20.0 0.00 0.00 0.00 44 1009.6
20260904194549 100 156 9.0 19.0 0.00 0.00 0.00 44 1009.8
20260904193044 100 137 8.0 18.0 0.00 0.00 0.00 44 1009.9
20260904191549 100 119 6.0 18.0 0.00 0.00 0.00 46 1010.1
20260904190043 99 146 10.0 18.0 0.00 0.00 0.00 44 1010.4
20260904184551 98 142 11.0 20.0 0.00 0.00 0.00 47 1010.8
20260904183049 97 126 10.0 16.0 0.00 0.00 0.00 48 1010.9
20260904181553 97 126 9.0 17.0 0.00 0.00 0.00 49 1011.4
20260904180052 96 135 10.0 21.0 0.00 0.00 0.00 52 1011.4
20260904174603 96 101 11.0 21.0 0.00 0.00 0.00 53 1011.6
20260904173058 95 126 9.0 19.0 0.00 0.00 0.00 55 1012.0
20260904171559 94 158 11.0 20.0 0.00 0.00 0.00 56 1012.2
20260904170050 94 124 11.0 18.0 0.00 0.00 0.00 59 1012.3
20260904164553 92 156 10.0 19.0 0.00 0.00 0.00 61 1012.3
20260904163049 91 132 10.0 20.0 0.00 0.00 0.00 64 1012.4
20260904161543 91 128 11.0 19.0 0.00 0.00 0.00 64 1012.3
20260904160043 90 202 12.0 22.0 0.00 0.00 0.00 66 1012.3
20260904154549 89 126 12.0 19.0 0.00 0.00 0.00 67 1012.4
20260904153055 89 113 11.0 19.0 0.00 0.00 0.00 71 1012.2
20260904151544 87 140 12.0 23.0 0.00 0.00 0.00 73 1012.4
20260904150050 86 128 13.0 21.0 0.00 0.00 0.00 75 1012.2
20260904144548 86 162 8.0 24.0 0.00 0.00 0.00 77 1012.2
20260904143045 85 136 10.0 19.0 0.00 0.00 0.00 79 1012.2
20260904141544 85 140 7.0 19.0 0.00 0.00 0.00 80 1012.2
20260904140051 84 131 9.0 18.0 0.00 0.00 0.00 82 1012.1
20260904134550 83 154 10.0 16.0 0.00 0.00 0.00 83 1012.0
20260904133052 82 143 8.0 18.0 0.00 0.00 0.00 84 1011.8
20260904131638 82 148 7.0 16.0 0.00 0.00 0.00 84 1011.7
20260904131604 82 148 7.0 16.0 0.00 0.00 0.00 84 1011.7
20260904130049 82 128 6.0 14.0 0.00 0.00 0.00 85 1011.5
20260904124542 82 123 5.0 12.0 0.00 0.00 0.00 84 1011.4
20260904123045 82 123 5.0 12.0 0.00 0.00 0.00 84 1011.3
20260904121549 82 132 7.0 13.0 0.00 0.00 0.00 84 1011.1
20260904120053 82 128 8.0 14.0 0.00 0.00 0.00 84 1010.8
20260904114545 82 152 6.0 11.0 0.00 0.00 0.00 83 1010.8
20260904113043 82 133 7.0 11.0 0.00 0.00 0.00 83 1010.8
20260904111544 83 129 5.0 11.0 0.00 0.00 0.00 82 1010.8
20260904110053 83 132 7.0 15.0 0.00 0.00 0.00 82 1010.8
20260904104547 83 146 7.0 14.0 0.00 0.00 0.00 81 1010.8
20260904103104 83 136 8.0 14.0 0.00 0.00 0.00 81 1010.6
20260904101551 83 152 6.0 15.0 0.00 0.00 0.00 81 1010.7
20260904100049 83 141 8.0 15.0 0.00 0.00 0.00 80 1010.8
20260904094546 83 147 9.0 14.0 0.00 0.00 0.00 80 1010.8
20260904093052 84 139 9.0 12.0 0.00 0.00 0.00 80 1010.8
20260904091602 84 144 6.0 11.0 0.00 0.00 0.00 80 1010.9
20260904090042 84 148 5.0 12.0 0.00 0.00 0.00 80 1010.9
20260904084552 84 142 7.0 15.0 0.00 0.00 0.00 80 1011.1
20260904083105 84 154 9.0 15.0 0.00 0.00 0.00 79 1011.3
20260904081544 84 151 9.0 16.0 0.00 0.00 0.00 79 1011.3
20260904080053 84 140 8.0 15.0 0.00 0.00 0.00 79 1011.3
20260904074604 84 140 7.0 18.0 0.00 0.00 0.00 79 1011.4
20260904073050 84 150 10.0 17.0 0.00 0.00 0.00 80 1011.5
20260904071546 85 137 7.0 16.0 0.00 0.00 0.00 80 1011.7
20260904070043 85 155 10.0 17.0 0.00 0.00 0.00 79 1011.8
20260904064543 85 168 9.0 20.0 0.00 0.00 0.00 79 1011.9
20260904063053 85 148 8.0 19.0 0.00 0.00 0.00 80 1011.8
20260904061542 85 152 7.0 17.0 0.00 0.00 0.00 81 1011.7
20260904060054 85 131 9.0 15.0 0.00 0.00 0.00 80 1011.5
20260904054542 85 113 7.0 21.0 0.00 0.00 0.00 80 1011.8
20260904053049 85 119 9.0 17.0 0.00 0.00 0.00 79 1011.8
20260904051543 85 125 11.0 18.0 0.00 0.00 0.00 79 1011.9
20260904050044 85 136 8.0 16.0 0.00 0.00 0.00 78 1012.0
20260904044542 85 123 9.0 23.0 0.00 0.00 0.00 77 1012.0
20260904043055 85 148 10.0 16.0 0.00 0.00 0.00 77 1012.0
20260904041555 86 129 12.0 19.0 0.00 0.00 0.00 77 1011.8
20260904040108 86 136 12.0 21.0 0.00 0.00 0.00 76 1011.6
20260904034554 86 134 10.0 18.0 0.00 0.00 0.00 76 1011.6
20260904033048 86 134 12.0 20.0 0.00 0.00 0.00 76 1011.5
20260904031559 86 135 13.0 21.0 0.00 0.00 0.00 75 1011.3
20260904030044 86 134 13.0 21.0 0.00 0.00 0.00 75 1011.1
20260904024544 87 108 11.0 25.0 0.00 0.00 0.00 74 1010.9
20260904023054 87 99 13.0 21.0 0.00 0.00 0.00 73 1010.8
20260904021548 87 143 13.0 26.0 0.00 0.00 0.00 72 1010.6
20260904020045 88 154 12.0 23.0 0.00 0.00 0.00 70 1010.1
20260904014609 88 136 13.0 24.0 0.00 0.00 0.00 70 1010.3
20260904013043 89 138 13.0 22.0 0.00 0.00 0.00 68 1009.8
20260904011544 90 126 13.0 29.0 0.00 0.00 0.00 66 1009.6
20260904010058 91 140 10.0 24.0 0.00 0.00 0.00 63 1009.4